OPS 4682 DEB, 38408

Orbit data source: Space-Track

OPS 4682 DEB, 38408 is space debris in LEO originally from a launch on Sat, 03 Apr 1965 UTC launched from the Air Force Western Test Range (AFWTR). Debris objects in space refer to the collection of defunct objects orbiting the Earth. Examples of debris include non-operational satellites, rocket bodies, and fragments generated from explosions, collisions, or faulty payload assembly.

Loading next visibility...
Identifier
38408, 1965-027DM
Orbit
LEO
Country
Flag of USUS
Related business
Manufacturer
Unknown
Mission
Spacecraft
Bus & Motor
Unknown
Mass
Unknown
Launch date (UTC)
1965-04-03 (61 years ago)
Launch vehicle
Unknown
Launch site
Air Force Western Test Range (AFWTR)
Object type
Payload
Rocket body
Debris
Shape & HBR
Unknown shape, 0.1 m
Radar Cross Section
Small (<0.1 m²)

Expand to show TLE details & history
Last TLE update: 3 days ago

TLE from 3 days ago
0 OPS 4682 DEB
1 38408U 65027DM  26065.55784436  .00000184  00000-0  56688-3 0  9993
2 38408  90.2911  12.7318 0045763  77.6353 282.9888 13.02156504591855
Epoch: 2026-03-06T13:23Z
TLE epoch observation values (Epoch: 2026-03-06T13:23:17.752Z)
Latitude
0.00003°
Longitude
7.6157°
Altitude
1,248.837 km
Speed
7.234 km/s
True Right ascension
00h 50m 55s
True Declination
0° 00' 00"
Sunlit
Object was in daylight at epoch
Visualization orbit readout
Latitude
Unknown
Longitude
Unknown
Altitude
Unknown
Speed
Unknown
Apparent Right ascension
Unknown
Apparent Declination
Unknown
Sunlit
N/A
Visualization observer readout
Local Sidereal Time
17:03:34
Azimuth
Unknown
Elevation
Unknown
Doppler factor
Unknown
Orbital elements
Apogee altitude
1,285.685 km
Perigee altitude
1,215.861 km
Semi-major axis
7,628.91 km
Eccentricity
0.00458
Inclination
90.2911°
RAAN
12.7318°
Arg. of periapsis
77.6353°
True anomaly
282.47716°
Mean anomaly
282.9888°
Eccentric anomaly
282.73305°
Mean motion
3.25724 °/min
Orbital period
110.52 mins
BSTAR
0.00056688
Loading maneuver chart data...
Computing Atmospheric mass density...
Loading historical data...
Loading historical data...
Loading historical data...
Loading historical data...
Loading historical data...
Loading historical data...
Loading historical data...

Documentation

Showing up to 5 results
|